Weather History for Loreto, Mexico

Change the Weather History Date:

Sunday, September 2, 2012

  Actual Average Record
Temperature  
Mean Temperature 88 °F -  
Max Temperature 95 °F 92 °F 101 °F (2013)
Min Temperature 82 °F 83 °F 80 °F (2008)
Cooling Degree Days 24    
Growing Degree Days 38 (Base 50)    
Moisture  
Dew Point 78 °F    
Average Humidity 72    
Maximum Humidity 89    
Minimum Humidity 40    
Precipitation  
Precipitation 0.00 in - - ()
Sea Level Pressure  
Sea Level Pressure 29.81 in    
Wind  
Wind Speed 3 mph ()    
Max Wind Speed 29 mph    
Max Gust Speed -    
Visibility 9.5 miles    
Events Rain    
Averages and records for this station are not official NWS values.
T = Trace of Precipitation, MM = Missing Value Source: Averaged Metar Reports

Daily Weather History Graph

Daily Weather History Graph

Search for Another Location

Airport:

Trip Planner

Search our weather history database for the weather conditions in past years. The results will help you decide how hot, cold, wet, or windy it might be!

Date:

Astronomy

Sep. 02, 2012 Rise Set
Actual Time 7:06 AM MDT 7:43 PM MDT
Civil Twilight 6:42 AM MDT 8:06 PM MDT
Nautical Twilight 6:15 AM MDT 8:33 PM MDT
Astronomical Twilight 5:47 AM MDT 9:01 PM MDT
Moon 8:54 PM MDT (9/2) 8:58 AM MDT (9/2)
Length of Visible Light 13h 23m
Length of Day
12h 36m
Waning Gibbous, 95% of the Moon is Illuminated
Sep 2
Waning Gibbous
Sep 8
Last Quarter
Sep 15
New
Sep 22
First Quarter
Sep 29
Full

Hourly Weather History & Observations

Time (MDT) Temp. Heat Index Dew Point Humidity Pressure Visibility Wind Dir Wind Speed Gust Speed Precip Events Conditions
2:50 AM 86 °F - 75 °F 64% 29.79 in 12 mi West 2.2 mph - -   Clear
5:30 AM 85 °F - 76 °F 69% 29.79 in 12 mi Calm Calm - -   Mostly Cloudy
8:34 AM 87 °F - 78 °F 67% 29.83 in 12 mi Calm Calm - -   Scattered Clouds
8:45 AM 86.0 °F 96.9 °F 77.0 °F 74% 29.83 in 8.0 mi Calm Calm - N/A   Mostly Cloudy
9:53 AM 87.8 °F 87.6 °F 60.8 °F 40% 29.85 in 8.0 mi Calm Calm - N/A   Mostly Cloudy
10:45 AM 89.6 °F 102.2 °F 77.0 °F 66% 29.86 in 8.0 mi Calm Calm - N/A   Mostly Cloudy
11:32 AM 94 °F - 78 °F 51% 29.86 in 12 mi SSE 4.5 mph - -   Scattered Clouds
11:49 AM 89.6 °F 108.2 °F 80.6 °F 75% 29.86 in 8.0 mi Calm Calm - N/A   Mostly Cloudy
1:45 PM 91.4 °F 107.2 °F 78.8 °F 66% 29.84 in 2.0 mi SSE 28.8 mph - N/A Rain Heavy Rain
2:19 PM 84.2 °F 98.3 °F 80.6 °F 89% 29.84 in 8.0 mi SSE 11.5 mph - N/A   Mostly Cloudy
2:34 PM 84 °F - 78 °F 79% 29.82 in 12 mi SE 8.9 mph - - Rain Light Rain
2:46 PM 82.4 °F 92.4 °F 78.8 °F 89% 29.53 in 8.0 mi SSE 9.2 mph - N/A Rain Light Rain
3:47 PM 86.0 °F 104.7 °F 82.4 °F 89% 29.80 in 8.0 mi Calm Calm - N/A   Mostly Cloudy
4:46 PM 87.8 °F 102.5 °F 78.8 °F 75% 29.80 in 8.0 mi Calm Calm - N/A   Mostly Cloudy
5:45 PM 87.8 °F 102.5 °F 78.8 °F 75% 29.80 in 8.0 mi Calm Calm - N/A   Scattered Clouds
5:50 PM 87 °F - 79 °F 71% 29.81 in 12 mi SSW 2.2 mph - -   Partly Cloudy
6:00 PM 87 °F - 79 °F 71%  in 12 mi SSW 2.2 mph - -  
6:44 PM 87.8 °F 104.9 °F 80.6 °F 79% 29.80 in 8.0 mi Calm Calm - N/A   Scattered Clouds
8:50 PM 86 °F - 79 °F 75% 29.86 in 12 mi SE 4.5 mph - -   Partly Cloudy
11:50 PM 85 °F - 79 °F 76% 29.88 in 12 mi Calm Calm - -   Scattered Clouds